Portada
METAR-TAF:

METAR-TAF

Aeropuertos :

Jinotega, Nicaragua

latitud: 13-05N, longitud: 085-59W, altitud: 985 m

Observación

El informe se hizo hace 49 minutos, a las 16:00 UTC
Viento 4 kt del norte
Temperatura 25°C
Humedad 65%
Presión 1014 hPa
Visibilidad 10 km o más
Cielo nuboso a una altura de 1400 ft

METAR: MNJG 241600Z 36004KT 9999 BKN014 25/18 Q1014

Hora: 10:49 (16:49 UTC)


TAF: falta

Observaciones y pronósticos meteorológicos de más de 4000 aeropuertos (mensajes METAR y TAF).

Los puntos amarillos y rojos representan las estaciones disponibles.

Ponga el ratón en el punto deseado para ver el nombre de la estación.

Haga clic para ver las observaciones y los pronósticos meteorológicos.

Para cambiar el mapa : haga clic en los botones verdes con una cruz de color negro para hacer un zoom, en el botón verde con un guión para alejar o en las flechas verdes para mapas adyacentes.


METAR-TAF: